|
NORAD ID: 4611 Int'l Code: 1970-025P
Perigee: 799.9 km
Apogee: 1,006.0 km
Inclination: 99.8 °
Period: 102.9 minutes
Semi major axis: 7273 km
Launch date: April 8, 1970
Source: United States (US)
Note: This is SATELLITE DEBRIS
Two Line Element Set (TLE):
1 04611U 70025P 13139.42556669 .00000377 00000-0 26922-3 0 6804
2 04611 099.7807 066.7531 0141643 018.0307 117.5378 13.99409368187088
Source:
NASA's NSSDC Master Catalog entry for THORAD AGENA D DEB
|